Back to catalog

CZ-3C DEB

AliveGTO
NORAD 40201·DEBRIS·🇨🇳 China

Launched Feb 24, 2012 from Xichang Satellite Launch Center

Loading…

TLE

StaleSource: Space-Track

Epoch: Sep 13, 2026, 17:36 UTC

1 40201U 12008L   26256.73368788 -.00000080  00000-0  43041-2 0  9992
2 40201  21.5090  46.7484 7093516 131.2407 316.1409  2.24774916105189

Track CZ-3C DEB in real time with AllMySat

Download on the App Store